Home > Time Zones > World Clock > Weather > Japan > Osaka > Past weeks

Flag for Japan Weather past 2 weeks in Osaka, Japan

Now
68 °F

Passing clouds.


Feels Like: 68 °F
Forecast: 63 / 83 °F
Wind: 2 mph from North

Location: Osaka International Airport

Current Time: Oct 2, 2014 at 5:26:32 AM

Latest Report: Oct 2, 2014 at 5:00 AM


Visibility: N/A

Pressure: 29.92 "Hg

Humidity: 78%

Dew point: 61 °F

Location of OsakaLocation

Historic Weather in Osaka — Graph

°F

Osaka temperature yesterday

Maximum temperature yesterday: 81 °F (at 12:00 PM)
Minimum temperature yesterday: 70 °F (at 5:00 AM)
Average temperature yesterday: 77 °F

Past Weeks' High & Low Weather Summary

 TemperatureHumidityPressure
High84 °F (Sep 22, 1:00 PM)100% (Sep 25, 5:00 AM)30.15 "Hg (Sep 25, 5:00 AM)
Low59 °F (Sep 21, 5:00 AM)27% (Sep 22, 1:00 PM)29.65 "Hg (Sep 25, 5:00 AM)
Average75 °F58%29.94 "Hg
* Reported Sep 16 8:00 PM — Oct 1 8:00 PM, Osaka, Weather by CustomWeather, © 2014

Note: Actual official high and low records may vary slightly from our data, if they occured in-between our weather recording intervals... More about our weather records

Advertising

Osaka weather history for previous 24 hours

 ConditionsComfort  
Time TempWeatherWind HumidityBarometerVisibility
8:00 PM
Oct 1
75 °FPassing clouds.8 mph61%29.98 "HgN/A
7:00 PM77 °FPassing clouds.10 mph57%29.98 "HgN/A
6:00 PM77 °FPassing clouds.7 mph57%29.98 "HgN/A
5:00 PM79 °FPartly sunny.9 mph58%29.95 "HgN/A
4:00 PM81 °FPartly sunny.8 mph51%29.95 "HgN/A
3:00 PM81 °FBroken clouds.7 mph51%29.95 "HgN/A
2:00 PM81 °FPartly sunny.2 mph51%29.95 "HgN/A
1:00 PM81 °FScattered clouds.3 mph51%29.95 "HgN/A
12:00 PM81 °FPassing clouds.2 mph51%29.98 "HgN/A
11:00 AM79 °FPartly sunny.6 mph54%30.01 "HgN/A
10:00 AM77 °FBroken clouds.5 mph61%30.01 "HgN/A
9:00 AM75 °FPartly sunny.6 mph61%30.04 "HgN/A
8:00 AM72 °FBroken clouds.7 mph69%30.01 "HgN/A
7:00 AM72 °FBroken clouds.3 mph73%30.04 "HgN/A
6:00 AM70 °FPartly sunny.6 mph73%30.01 "HgN/A
5:00 AM70 °FPassing clouds.1 mph78%30.01 "HgN/A
Weather by CustomWeather, © 2014

See weather overviewHow to use our weather pages